CZ-6A DEB, 56668

Orbit data source: Space-Track

CZ-6A DEB, 56668 is space debris in SSO originally from a launch on Fri, 11 Nov 2022 UTC launched from the Taiyaun Space Center, China (TSC). Debris objects in space refer to the collection of defunct objects orbiting the Earth. Examples of debris include non-operational satellites, rocket bodies, and fragments generated from explosions, collisions, or faulty payload assembly.

Loading next visibility...
Identifier
56668, 2022-151AGU
Orbit
SSO
Country
Flag of CNCN / PRC
Related business
Manufacturer
SAST
Mission
Spacecraft
Bus & Motor
Unknown
Mass
Unknown
Launch date (UTC)
2022-11-11 (4 years ago)
Launch vehicle
Unknown
Launch site
Taiyaun Space Center, China (TSC)
Object type
Payload
Rocket body
Debris
Shape & HBR
Unknown shape, 0.1 m
Radar Cross Section
Small (<0.1 m²)

Expand to show TLE details & history
Last TLE update: 3 days ago

TLE from 3 days ago
0 CZ-6A DEB
1 56668U 22151AGU 26234.13521551  .00002347  00000-0  72213-3 0  9996
2 56668  98.8236 298.1355 0033827 175.5185 184.6313 14.42176684189947
Epoch: 2026-08-22T03:14Z
TLE epoch observation values (Epoch: 2026-08-22T03:14:42.620Z)
Latitude
0.00003°
Longitude
-80.99206°
Altitude
778.3 km
Speed
7.452 km/s
True Right ascension
19h 52m 32s
True Declination
0° 00' 00"
Sunlit
Object was in full shadow at epoch
Visualization orbit readout
Latitude
Unknown
Longitude
Unknown
Altitude
Unknown
Speed
Unknown
Apparent Right ascension
Unknown
Apparent Declination
Unknown
Sunlit
N/A
Visualization observer readout
Local Sidereal Time
14:13:47
Azimuth
Unknown
Elevation
Unknown
Doppler factor
Unknown
Orbital elements
Apogee altitude
772.557 km
Perigee altitude
724.343 km
Semi-major axis
7,126.587 km
Eccentricity
0.00338
Inclination
98.8236°
RAAN
298.1355°
Arg. of periapsis
175.5185°
True anomaly
184.60013°
Mean anomaly
184.6313°
Eccentric anomaly
184.6157°
Mean motion
3.60762 °/min
Orbital period
99.79 mins
BSTAR
0.00072213
Loading maneuver chart data...
Computing Atmospheric mass density...
Loading historical data...
Loading historical data...
Loading historical data...
Loading historical data...
Loading historical data...
Loading historical data...
Loading historical data...

Documentation

Showing up to 5 results
|